Regional Weather Roundup
Issued by NWS Boston, MA

Home | Current Version | Previous Version | Text Only | Print | Product List | Glossary On
Versions: 1 2 3 4 5 6 7 8 9 10 11 12 13 14 15 16 17 18 19 20 21 22 23 24 25 26 27 28 29 30 31 32 33 34 35 36 37 38 39 40 41 42 43 44 45 46 47 48 49 50
000
ASUS41 KBOX 020010
RWRBOX

REGIONAL WEATHER ROUNDUP
NATIONAL WEATHER SERVICE TAUNTON MA
800 PM EDT SAT AUG 01 2015

NOTE:  "FAIR" INDICATES FEW OR NO CLOUDS BELOW 12,000 FEET WITH NO
SIGNIFICANT WEATHER AND/OR OBSTRUCTIONS TO VISIBILITY.  THE FOLLOWING
OBSERVATION LOCATIONS DO NOT REPORT PRESENT WEATHER...PROVINCETOWN...
SMITHFIELD...BLOCK ISLAND...KEENE...AND OXFORD.

MAZALL-020100-
EASTERN MASSACHUSETTS

CITY           SKY/WX    TMP DP  RH WIND       PRES   REMARKS
BOSTON         PTCLDY    79  59  50 W10       29.75R
6HR MIN TEMP:  76; 6HR MAX TEMP:  90; 6HR PCP: TRACE;

BEVERLY        CLEAR     77  60  55 SW7       29.74R
LAWRENCE       CLEAR     79  60  52 SW9       29.76R
BEDFORD        CLEAR     74  62  66 SW5       29.75R
BLUE HILL        N/A     73  61  65 W12       29.77R
NORWOOD        PTCLDY    75  63  66 SW6       29.76R
MARSHFIELD     MOCLDY    79  61  53 SW3       29.77R
PLYMOUTH       MOCLDY    78  61  55 SW3       29.77R
TAUNTON        PTCLDY    73  66  78 CALM      29.76R
NEW BEDFORD    PTCLDY    75  66  73 SW5       29.77R
$$

MAZALL-020100-
CAPE COD AND THE ISLANDS

CITY           SKY/WX    TMP DP  RH WIND       PRES   REMARKS
FALMOUTH       PTCLDY    73  70  88 SW13G18   29.78R
HYANNIS        PTCLDY    77  67  71 SW13      29.77R
CHATHAM        PTCLDY    76  68  76 W12G18    29.79R
PROVINCETOWN   MOCLDY    72  63  73 SW7       29.77R
NANTUCKET      CLEAR     73  70  90 SW13      29.79R
MARTHAS VNYRD  PTCLDY    76  68  76 SW12      29.79R
$$

MAZALL-020100-
CENTRAL AND WESTERN MASSACHUSETTS

CITY           SKY/WX    TMP DP  RH WIND       PRES   REMARKS
WORCESTER      CLEAR     72  62  71 SW6       29.81R
6HR MIN TEMP:  70; 6HR MAX TEMP:  81; 6HR PCP:  0.03;

FITCHBURG      CLEAR     76  61  59 SW5       29.78R
ORANGE         PTCLDY    74  57  55 W3        29.78R
SPRINGFIELD    CLEAR     78  61  56 NW2       29.76R
WESTFIELD      PTCLDY    78  60  53 SW6       29.78R
NORTH ADAMS    MOCLDY    73  56  54 W7        29.81R
PITTSFIELD     PTCLDY    71  54  54 NW7       29.82R
$$

RIZALL-020100-
RHODE ISLAND

CITY           SKY/WX    TMP DP  RH WIND       PRES   REMARKS
PROVIDENCE     MOCLDY    78  61  55 W5        29.78R
6HR MIN TEMP:  78; 6HR MAX TEMP:  90; 6HR PCP: TRACE;

NEWPORT        PTCLDY    76  66  71 CALM      29.78R
BLOCK ISLAND     N/A     73  70  88 SW16      29.80R
SMITHFIELD     CLEAR     70  63  78 CALM      29.79R
WESTERLY       CLEAR     78  63  59 CALM      29.79R
$$

CTZALL-020100-
CONNECTICUT

CITY           SKY/WX    TMP DP  RH WIND       PRES   REMARKS
BRADLEY INTL   PTCLDY    78  62  57 W5        29.77R
6HR MIN TEMP:  76; 6HR MAX TEMP:  89; 6HR PCP: TRACE;

HARTFORD       CLEAR     82  61  48 W3        29.76R
BRIDGEPORT     CLEAR     83  57  41 W8        29.78R
DANBURY        CLEAR     73  61  65 SW3       29.82R
GROTON         CLEAR     75  64  68 S3        29.78R
NEW HAVEN      PTCLDY    80  59  48 VRB3      29.78R
CHESTER        NOT AVBL
MERIDEN          N/A     75  69  81 CALM      29.78R
WILLIMANTIC    PTCLDY    78  63  59 CALM      29.78R
OXFORD         PTCLDY    77  59  53 CALM      29.83R
$$

MEZ002-015-021-024-NHZ003-005-008-011-012-014-VTZ005-008-020100-
NORTHERN NEW ENGLAND

CITY           SKY/WX    TMP DP  RH WIND       PRES   REMARKS
PORTLAND ME    PTCLDY    77  57  50 W6        29.73R
6HR MIN TEMP:  77; 6HR MAX TEMP:  86;

BANGOR ME      PTCLDY    72  57  59 CALM      29.71R
CONCORD NH     PTCLDY    78  57  48 NW7       29.75R
MANCHESTER NH  PTCLDY    80  55  42 W5        29.73R
NASHUA NH      PTCLDY    77  56  48 W5        29.76R
PORTSMOUTH NH  PTCLDY    77  56  47 NW6       29.72R
JAFFREY NH     CLEAR     75  51  43 W5        29.81R
KEENE NH       CLEAR     77  52  41 NW6       29.79R
BURLINGTON VT  MOCLDY    75  54  47 W9        29.76R
MT. WASHINGTON FOG       46  46 100 W35         N/A  VSB 1/16
$$

NYZ052-076-020100-
EASTERN NEW YORK

CITY           SKY/WX    TMP DP  RH WIND       PRES   REMARKS
ALBANY         PTCLDY    76  54  46 NW8       29.80R
6HR MIN TEMP:  76; 6HR MAX TEMP:  85;

NEW YORK CITY  PTCLDY    84  56  38 NW14G20   29.79R
6HR MIN TEMP:  83; 6HR MAX TEMP:  90;

$$

ANZALL-020100-
MARINE OBSERVATIONS

STATION/POSITION TIME  TEMP    WIND        PRES    VSBY  WAVE
                       AIR SEA DIR/SP/G                  HT/PER
                 (UTC) (F)     (DEG/KT/KT) (MB)    (MI)  (FT/S)
BOSTON BUOY      2350   74 70  220/  8/  8 1007.6R         2/ 9
BUZZARDS BAY     2300          260/ 20/ 23 1008.6R
NANTUCKET SOUND  2350   75 74  240/ 16/ 19 1007.8R         2/ 3
MASS BAY-STELLWA 2304   74 68  240/ 10/ 10   N/A    1 7/8  1/ 3
ISLE OF SHOALS   2300   80     260/ 13/ 13 1005.4R
S OF BLOCK IS    2308      74                N/A           5/ 9
$$

......................KEY.........................
  SKY/WX - SKY CONDITION/PRESENT WEATHER
  TMP    - TEMPERATURE IN FAHRENHEIT
  DWPT   - DEWPOINT IN FAHRENHEIT
  RH     - RELATIVE HUMIDITY IN PERCENT
  WIND   - DIRECTION AND SPEED IN MPH
  PRES   - MEAN SEA LEVEL PRESSURE IN INCHES OF HG
  WCI    - WIND CHILL INDEX
  VSB    - VISIBILITY IN MILES
  HX     - HEAT INDEX
  TC     - TEMPERATURE IN CELSIUS
  VRB    - VARIABLE WIND DIRECTION
  N/A    - NOT AVAILABLE



USA.gov is the U.S. government's official web portal to all federal, state and local government web resources and services.